SCP
0 0 0 0 0 0 0 0 0 0 -0 -0 -0 -0 -0 -0 -0 -0 -0 0 0 -0 -0 -0 -0 -0 -0 -0 -0 0 -0 0 0 0 0 0 0 0 0 0 0 0 0 0 0 0 0
0 0 0 0 0 0 0 0 0 0 0 -0 -0 -0 0 -0 -0 -0 0 -0 0 0 -0 -0 -0 -0 -0 0 0 -0 -0 0 0 0 0 0 0 0 0 0 0 0 0 0 0 0 0
0 0 0 0 0 0 0 0 0 0 0 -0 -0 -0 0 0 -0 -0 0 -0 -0 0 0 -0 -0 -0 -0 -0 0 -0 -0 0 0 0 0 0 0 0 0 0 0 0 0 0 0 0 0
0 0 0 0 0 0 0 0 0 0 0 0 -0 -0 0 0 0 -0 -0 -0 0 0 0 0 -0 0 -0 0 0 0 0 0 -0 0 0 0 0 0 0 0 0 0 0 0 0 0 0
0 0 0 0 0 0 0 0 0 0 0 0 0 -0 0 0 0 0 -0 -0 0 -0 -0 0 -0 0 0 0 0 0 0 0 0 0 0 0 0 0 0 0 0 0 0 0 0 0 0
0 0 0 0 0 0 0 0 0 0 0 0 0 0 -0 -0 0 0 -0 -0 -0 -0 -0 -0 -0 0 0 -0 0 0 0 0 0 0 0 0 0 0 0 0 0 0 0 0 0 0 0
0 0 0 0 0 0 0 0 0 0 0 0 0 0 0 -0 -0 0 -0 -0 0 0 0 0 0 0 0 0 0 0 0 0 0 0 0 0 0 0 0 0 0 0 0 0 0 0 0
0 0 0 0 0 0 0 0 0 0 0 0 0 0 0 -0 0 -0 0 0 -0 0 0 0 0 0 0 0 0 0 0 0 0 0 0 0 0 0 0 0 0 0 0 0 0 0 0
0 0 0 0 0 0 0 0 0 0 0 0 0 0 0 0 0 0 0 0 -0 -0 0 0 0 0 -0 0 0 0 0 0 0 0 0 0 0 0 0 0 0 0 0 0 0 0 0
0 0 0 0 0 0 0 0 0 0 0 0 0 0 0 0 0 0 0 -0 -0 -0 0 0 0 0 0 0 0 0 0 0 0 0 0 0 0 0 0 0 0 0 0 0 0 0 0
0 0 0 0 0 0 0 0 0 0 0 0 0 0 0 0 0 0 0 -0 -0 0 0 0 0 0 -0 0 0 0 0 0 0 0 0 0 0 0 0 0 0 0 0 0 0 0 0
0 0 0 0 0 0 0 0 0 0 0 0 0 0 0 0 0 0 0 0 0 0 0 0 0 0 0 0 0 0 0 0 0 0 0 0 0 0 0 0 0 0 0 0 0 0 0
0 0 0 0 0 0 0 0 0 0 0 0 0 0 0 0 0 0 0 0 0 0 0 0 0 0 0 0 0 0 0 0 0 0 0 0 0 0 0 0 0 0 0 0 0 0 0
0 0 0 0 0 0 0 0 0 0 0 0 0 0 0 0 0 0 0 0 0 0 0 0 0 0 0 0 0 0 0 0 0 0 0 0 0 0 0 0 0 0 0 0 0 0 0
0 0 0 0 0 0 0 0 0 0 0 0 0 0 0 0 0 0 0 0 0 0 0 0 0 0 0 0 0 0 0 0 0 0 0 0 0 0 0 0 0 0 0 0 0 0 0
0 0 0 0 0 0 0 0 0 0 0 0 0 0 0 0 0 0 0 0 0 0 0 0 0 0 0 0 0 0 0 0 0 0 0 0 0 0 0 0 0 0 0 0 0 0 0
0 0 0 0 0 0 0 0 0 0 0 0 0 0 0 0 0 0 0 0 0 0 0 0 0 0 0 0 0 0 0 0 0 0 0 0 0 0 0 0 0 0 0 0 0 0 0
0 0 0 0 0 0 0 0 0 0 0 0 0 0 0 0 0 0 0 0 0 0 0 0 0 0 0 0 0 0 0 0 0 0 0 0 0 0 0 0 0 0 0 0 0 0 0
0 0 0 0 0 0 0 0 0 0 0 0 0 0 0 0 0 0 0 0 0 0 0 0 0 0 0 0 0 0 0 0 0 0 0 0 0 0 0 0 0 0 0 0 0 0 0
0 0 0 0 0 0 0 0 0 0 0 0 0 0 0 0 0 0 0 0 0 0 0 0 0 0 0 0 0 0 0 0 0 0 0 0 0 0 0 0 0 0 0 0 0 0 0
0 0 0 0 0 0 0 0 0 0 0 0 0 0 0 0 0 0 0 0 0 0 0 0 0 0 0 0 0 0 0 0 0 0 0 0 0 0 0 0 0 0 0 0 0 0 0
0 0 0 0 0 0 0 0 0 0 0 0 0 0 0 0 0 0 0 0 0 0 0 0 0 0 0 0 0 0 0 0 0 0 0 0 0 0 0 0 0 0 0 0 0 0 0
0 0 0 0 0 0 0 0 0 0 0 0 0 0 0 0 0 0 0 0 0 0 0 0 0 0 0 0 0 0 0 0 0 0 0 0 0 0 0 0 0 0 0 0 0 0 0
0 0 0 0 0 0 0 0 0 0 0 0 0 0 0 0 0 0 0 0 0 0 0 0 0 0 0 0 0 0 0 0 0 0 0 0 0 0 0 0 0 0 0 0 0 0 0
0 0 0 0 0 0 0 0 0 0 0 0 0 0 0 0 0 0 0 0 0 0 0 0 0 0 0 0 0 0 0 0 0 0 0 0 0 0 0 0 0 0 0 0 0 0 -0
0 0 0 0 0 0 0 0 0 0 0 0 0 0 0 0 0 0 0 0 0 0 0 0 0 0 0 0 0 0 0 0 0 0 0 0 0 0 0 0 0 0 0 0 0 0 0
0 0 0 0 0 0 0 0 0 0 0 0 0 0 0 0 0 0 0 0 0 0 0 0 0 0 0 0 0 0 0 0 0 0 0 0 0 0 0 0 0 0 0 0 0 0 0
0 0 0 0 0 0 0 0 0 -0 0 0 0 0 0 0 0 0 0 0 0 0 0 0 0 0 0 0 0 0 0 0 0 0 0 0 0 0 0 0 0 0 0 0 0 0 0
0 0 0 0 0 0 0 0 0 0 0 0 0 0 0 0 0 0 0 0 0 0 0 0 0 0 0 0 0 0 0 0 0 0 0 0 0 0 0 0 0 0 0 0 0 0 0
Wind_Speed_500mb
23 18 14 10 7 5 3 4 6 6 6 8 11 12 15 19 19 18 17 15 8 16 14 23 27 15 18 25 23 26 26 31 27 27 20 24 36 20 9 9 19 12 9 15 21 15 15
26 23 19 14 10 6 4 1 3 5 4 6 8 10 14 18 18 18 18 18 9 12 13 8 24 31 20 20 30 25 24 22 31 32 34 29 20 20 18 12 11 7 8 14 21 20 14
31 29 23 18 13 10 6 3 1 2 3 4 6 9 13 15 15 14 18 18 10 13 14 13 12 11 48 26 31 23 19 24 25 34 36 37 34 19 7 4 7 3 7 2 22 29 7
31 29 26 20 16 12 8 4 4 0 1 3 5 8 11 13 15 9 15 20 10 13 16 9 12 18 19 28 26 20 21 19 19 27 32 29 28 20 15 5 2 5 6 7 9 22 13
35 32 29 25 21 16 11 6 7 5 1 3 4 6 10 10 13 10 7 30 16 18 21 13 15 14 10 21 26 29 28 21 16 25 27 21 18 25 25 6 9 14 5 11 1 20 11
37 37 33 30 26 21 14 10 9 7 3 4 5 5 8 9 12 10 4 4 29 7 5 11 15 12 17 14 29 30 22 21 19 14 13 18 16 9 14 16 2 9 8 12 8 13 14
39 40 36 35 31 27 20 16 11 9 5 4 3 4 5 7 10 9 5 5 5 8 42 24 16 12 14 9 22 24 12 29 14 13 8 18 20 10 11 9 4 4 8 11 11 8 10
43 45 39 38 36 34 25 20 15 13 8 7 4 3 4 4 8 9 6 2 11 19 24 21 22 20 19 19 14 36 15 11 23 10 4 12 10 11 14 12 10 2 8 9 15 11 8
48 50 46 42 39 38 31 26 21 16 11 10 6 3 3 1 5 8 11 15 20 17 9 12 17 14 14 15 16 35 20 10 13 14 16 12 5 21 6 13 13 9 7 8 10 16 6
53 55 49 47 43 42 37 30 26 21 15 12 8 1 3 1 2 4 6 11 11 6 9 13 11 10 16 6 10 30 18 8 11 5 5 10 14 10 11 7 8 2 4 8 13 11 4
56 56 53 51 48 45 41 36 31 26 21 15 11 3 3 1 3 4 4 6 6 3 7 2 6 6 13 12 6 20 28 12 8 7 6 5 10 9 9 7 8 8 12 10 5 8 6
60 59 55 53 50 51 46 42 37 31 26 19 15 8 5 3 2 5 4 6 8 11 7 6 6 7 3 12 8 9 11 11 9 7 12 5 3 4 4 10 8 17 7 4 2 2 6
63 65 61 54 56 52 51 49 42 37 30 24 18 10 7 7 5 3 5 6 9 9 9 2 1 5 3 6 8 8 7 13 7 9 9 11 3 3 9 8 10 15 11 5 11 10 6
67 68 61 58 52 56 53 54 46 43 37 29 22 15 10 8 7 4 6 9 5 4 10 5 5 2 2 3 4 7 5 5 11 9 6 7 11 10 16 3 2 8 5 7 7 6 9
73 71 68 61 56 54 54 56 51 47 41 34 28 18 14 11 9 6 5 7 12 12 9 14 6 8 6 3 6 6 5 5 2 4 9 6 8 4 5 4 4 11 9 5 7 3 2
84 78 75 69 60 53 52 61 51 47 42 37 27 18 15 16 12 9 7 9 7 7 6 6 10 7 7 7 6 8 3 1 4 1 4 7 6 3 5 2 5 6 4 7 6 6 7
97 90 80 76 69 57 56 53 54 49 41 37 30 12 14 22 18 7 7 11 8 10 9 9 9 8 4 7 5 8 7 2 6 7 8 7 7 9 4 1 6 5 5 2 5 5 7
68 87 84 82 76 67 68 62 59 52 44 47 26 6 19 32 8 2 7 12 15 12 8 5 7 5 10 9 4 2 12 4 11 14 6 11 8 3 11 9 4 3 4 5 7 9 3
25 34 89 85 86 88 84 80 74 64 66 66 22 15 23 40 7 4 3 3 8 12 11 11 9 6 2 8 5 5 8 12 10 7 7 9 2 6 14 11 9 4 7 5 8 6 9
32 30 31 47 101 98 96 97 90 83 79 67 21 6 11 26 8 13 11 8 9 11 11 10 9 9 7 5 6 9 4 8 9 3 7 8 5 12 11 10 8 6 6 10 11 6 5
51 38 36 28 64 113 103 107 100 97 90 81 29 18 25 11 13 16 16 17 14 13 7 15 1 10 13 7 5 7 8 5 5 7 5 7 5 4 10 9 6 11 12 13 16 11 12
62 55 59 47 27 33 88 111 112 108 103 97 29 16 21 15 33 25 18 16 22 12 18 11 9 20 14 13 13 16 12 10 10 9 8 4 4 4 10 4 2 10 16 18 8 7 21
52 60 59 68 50 47 39 114 113 118 119 57 62 34 24 20 13 23 17 17 24 32 19 11 28 13 12 11 18 20 14 20 20 15 13 10 8 5 10 5 6 11 14 23 9 11 13
53 52 54 61 68 58 59 37 134 116 128 99 88 63 28 7 11 15 25 22 22 32 21 16 37 14 22 37 36 27 28 26 22 9 9 10 6 5 8 9 6 11 10 13 13 12 32
52 53 50 53 65 69 72 53 35 129 116 129 83 84 41 7 32 11 29 18 43 31 11 16 17 21 53 27 8 9 9 11 9 7 7 3 7 3 3 4 14 4 8 13 13 13 29
55 55 56 52 45 54 68 65 50 102 119 129 112 101 76 26 26 40 25 42 13 9 7 6 27 61 31 8 6 10 10 9 3 10 11 4 7 7 6 4 9 8 7 13 8 9 14
35 49 56 61 55 48 52 59 69 31 129 132 98 101 68 30 23 66 21 38 30 20 9 17 26 23 12 4 5 7 8 7 9 17 11 3 3 10 6 6 18 11 18 20 9 10 11
28 31 47 48 51 53 51 59 73 69 48 128 80 88 72 38 35 72 64 45 39 37 14 34 17 7 3 6 7 8 6 14 6 10 14 16 16 8 6 2 16 27 17 15 5 6 9
23 22 42 48 50 58 61 47 66 68 51 74 70 81 91 36 20 72 66 69 78 85 66 66 17 30 33 7 6 6 4 3 8 7 7 8 13 12 19 14 5 60 17 33 9 6 8
Wind_Direction_500mb
206 202 198 194 189 171 165 117 87 61 35 38 39 32 34 32 33 41 45 50 56 27 42 56 48 64 62 61 38 31 29 32 27 40 52 73 60 61 77 70 50 66 49 42 19 21 53
211 207 206 206 199 191 187 184 92 92 49 23 29 28 33 34 34 37 49 51 39 35 33 96 53 54 73 70 36 26 34 39 45 49 56 66 55 54 65 49 63 23 12 49 19 15 65
215 216 211 211 207 199 201 246 267 71 55 28 16 23 29 33 35 46 50 32 43 33 37 73 59 65 58 57 36 24 31 48 44 51 67 67 62 63 39 51 58 336 346 213 7 356 28
220 216 213 218 214 212 201 232 274 21 3 2 4 8 27 21 28 27 29 24 82 60 71 70 70 67 74 39 30 33 38 34 42 66 70 66 52 63 33 19 353 338 36 55 329 11 330
224 223 218 219 220 215 211 217 254 264 319 320 345 4 18 20 15 15 67 55 87 98 76 85 66 84 58 21 32 36 33 29 49 59 50 54 54 59 19 26 25 17 349 341 161 22 11
230 229 223 222 220 220 215 216 231 248 274 301 322 3 16 8 12 13 22 139 61 109 128 73 81 73 37 11 26 22 44 41 30 39 54 51 59 64 23 39 74 316 345 333 10 335 18
239 236 225 220 220 222 213 214 223 234 254 272 291 334 18 4 15 22 53 131 125 71 68 64 55 76 34 38 37 18 73 55 22 34 61 41 58 30 333 16 331 293 23 348 319 321 20
241 235 229 225 217 220 214 216 216 227 228 259 272 300 4 12 15 29 34 132 112 131 90 63 65 65 44 35 28 29 46 75 46 35 16 39 53 314 309 31 358 35 45 341 310 336 339
242 237 231 224 223 219 218 213 214 218 223 238 253 284 347 23 34 50 77 115 122 121 77 44 40 43 37 45 40 9 26 51 45 43 45 93 272 314 352 35 25 66 73 315 279 317 291
237 239 230 229 221 222 219 214 211 216 219 236 238 222 327 162 161 90 94 131 146 149 80 330 354 17 27 53 36 18 24 58 37 70 69 73 353 354 45 65 23 84 8 324 316 14 320
237 236 231 228 223 223 219 216 214 212 220 221 228 199 258 95 167 99 125 142 152 140 42 327 336 6 42 78 349 17 29 52 72 21 82 276 360 0 18 336 340 254 320 279 284 323 16
236 230 229 226 224 224 220 216 217 214 216 222 228 193 220 235 173 117 121 136 135 45 258 341 328 346 103 41 49 10 29 48 75 54 36 105 58 59 272 287 255 307 309 222 323 70 36
229 232 228 225 226 223 220 218 219 214 215 222 221 221 195 222 208 155 130 121 34 124 350 250 322 352 74 28 48 38 70 16 58 57 358 347 360 324 347 333 2 9 37 353 8 15 229
229 228 227 224 225 228 219 219 214 214 214 215 220 215 207 206 192 170 138 59 91 212 215 234 130 354 97 336 66 16 83 42 36 64 79 107 344 5 347 66 223 336 64 132 189 322 289
226 225 226 222 223 224 218 217 214 215 211 212 217 216 207 202 200 181 136 71 211 194 168 150 62 79 310 149 110 87 73 151 105 111 134 93 299 311 53 330 40 319 40 279 97 52 14
223 222 222 221 222 222 224 219 217 213 210 210 213 215 220 199 194 177 86 224 195 212 144 148 152 150 196 189 123 121 206 158 134 79 168 222 19 283 312 341 342 85 242 28 360 40 335
227 221 220 221 218 221 226 221 222 214 208 207 202 206 207 189 177 189 169 210 198 188 166 150 177 147 200 186 153 135 116 351 150 173 102 127 106 291 10 312 180 28 1 358 127 130 152
233 227 226 221 217 222 223 221 217 211 204 204 189 185 188 173 146 355 162 182 150 174 177 147 127 174 166 178 147 127 137 179 164 167 195 187 145 224 225 260 17 98 227 137 128 278 234
223 221 225 227 221 219 221 220 213 210 208 192 191 158 182 177 149 245 296 139 168 152 194 170 161 172 148 170 106 131 134 118 179 185 188 180 323 11 347 352 357 211 197 154 114 83 220
249 252 254 245 226 222 221 222 213 213 204 199 191 132 155 201 193 154 149 206 185 188 175 170 131 126 104 53 24 155 191 135 204 172 160 141 113 169 197 211 135 188 248 196 136 130 221
260 253 262 267 212 230 223 224 218 211 205 193 213 216 170 175 230 192 180 153 146 174 191 175 75 199 161 126 35 194 145 94 159 211 191 144 200 172 257 256 265 224 192 206 187 197 175
249 255 254 248 252 239 229 224 224 216 204 193 191 183 172 176 176 157 167 212 165 167 151 217 211 189 179 158 187 188 159 136 197 181 193 189 264 89 293 336 290 263 235 208 228 256 273
254 252 244 254 252 254 258 223 232 222 204 194 203 191 181 165 165 176 192 181 188 143 202 203 185 133 176 182 131 102 127 128 165 157 189 174 136 84 274 310 325 321 222 187 192 217 160
246 248 247 243 246 248 255 239 217 227 214 202 202 197 181 190 184 191 170 167 165 183 148 165 169 130 147 139 115 101 82 77 98 53 166 157 124 112 257 350 6 241 146 181 193 223 216
238 250 250 246 242 241 250 251 235 221 230 213 201 196 197 163 188 168 168 139 130 129 94 143 151 157 152 138 83 60 352 14 356 9 347 132 137 64 124 220 294 273 201 162 177 278 209
237 239 241 237 230 236 237 246 248 211 226 220 207 203 203 166 212 180 158 167 150 129 78 115 139 150 163 127 116 159 203 201 268 345 328 78 72 118 69 145 225 243 176 174 161 305 210
201 238 241 238 239 234 237 235 241 248 219 216 210 203 197 197 188 182 179 177 165 139 111 142 148 171 179 143 130 169 210 167 176 166 184 133 63 161 178 243 282 230 159 144 83 236 184
211 231 228 238 243 241 233 233 240 248 225 207 212 208 202 201 190 193 192 169 158 160 146 152 110 195 154 150 154 191 174 211 136 164 174 178 153 181 102 123 277 160 126 175 212 179 196
264 238 243 242 245 236 225 232 230 240 237 221 215 219 212 208 201 202 202 206 204 196 176 166 175 155 170 143 194 110 161 120 162 219 151 226 187 179 189 211 244 185 206 217 210 232 242
Wind_Speed_850mb
23 18 14 10 7 5 3 4 6 6 6 8 11 12 15 19 19 18 17 15 8 16 14 23 27 15 18 25 23 26 26 31 27 27 20 24 36 20 9 9 19 12 9 15 21 15 15
26 23 19 14 10 6 4 1 3 5 4 6 8 10 14 18 18 18 18 18 9 12 13 8 24 31 20 20 30 25 24 22 31 32 34 29 20 20 18 12 11 7 8 14 21 20 14
31 29 23 18 13 10 6 3 1 2 3 4 6 9 13 15 15 14 18 18 10 13 14 13 12 11 48 26 31 23 19 24 25 34 36 37 34 19 7 4 7 3 7 2 22 29 7
31 29 26 20 16 12 8 4 4 0 1 3 5 8 11 13 15 9 15 20 10 13 16 9 12 18 19 28 26 20 21 19 19 27 32 29 28 20 15 5 2 5 6 7 9 22 13
35 32 29 25 21 16 11 6 7 5 1 3 4 6 10 10 13 10 7 30 16 18 21 13 15 14 10 21 26 29 28 21 16 25 27 21 18 25 25 6 9 14 5 11 1 20 11
37 37 33 30 26 21 14 10 9 7 3 4 5 5 8 9 12 10 4 4 29 7 5 11 15 12 17 14 29 30 22 21 19 14 13 18 16 9 14 16 2 9 8 12 8 13 14
39 40 36 35 31 27 20 16 11 9 5 4 3 4 5 7 10 9 5 5 5 8 42 24 16 12 14 9 22 24 12 29 14 13 8 18 20 10 11 9 4 4 8 11 11 8 10
43 45 39 38 36 34 25 20 15 13 8 7 4 3 4 4 8 9 6 2 11 19 24 21 22 20 19 19 14 36 15 11 23 10 4 12 10 11 14 12 10 2 8 9 15 11 8
48 50 46 42 39 38 31 26 21 16 11 10 6 3 3 1 5 8 11 15 20 17 9 12 17 14 14 15 16 35 20 10 13 14 16 12 5 21 6 13 13 9 7 8 10 16 6
53 55 49 47 43 42 37 30 26 21 15 12 8 1 3 1 2 4 6 11 11 6 9 13 11 10 16 6 10 30 18 8 11 5 5 10 14 10 11 7 8 2 4 8 13 11 4
56 56 53 51 48 45 41 36 31 26 21 15 11 3 3 1 3 4 4 6 6 3 7 2 6 6 13 12 6 20 28 12 8 7 6 5 10 9 9 7 8 8 12 10 5 8 6
60 59 55 53 50 51 46 42 37 31 26 19 15 8 5 3 2 5 4 6 8 11 7 6 6 7 3 12 8 9 11 11 9 7 12 5 3 4 4 10 8 17 7 4 2 2 6
63 65 61 54 56 52 51 49 42 37 30 24 18 10 7 7 5 3 5 6 9 9 9 2 1 5 3 6 8 8 7 13 7 9 9 11 3 3 9 8 10 15 11 5 11 10 6
67 68 61 58 52 56 53 54 46 43 37 29 22 15 10 8 7 4 6 9 5 4 10 5 5 2 2 3 4 7 5 5 11 9 6 7 11 10 16 3 2 8 5 7 7 6 9
73 71 68 61 56 54 54 56 51 47 41 34 28 18 14 11 9 6 5 7 12 12 9 14 6 8 6 3 6 6 5 5 2 4 9 6 8 4 5 4 4 11 9 5 7 3 2
84 78 75 69 60 53 52 61 51 47 42 37 27 18 15 16 12 9 7 9 7 7 6 6 10 7 7 7 6 8 3 1 4 1 4 7 6 3 5 2 5 6 4 7 6 6 7
97 90 80 76 69 57 56 53 54 49 41 37 30 12 14 22 18 7 7 11 8 10 9 9 9 8 4 7 5 8 7 2 6 7 8 7 7 9 4 1 6 5 5 2 5 5 7
68 87 84 82 76 67 68 62 59 52 44 47 26 6 19 32 8 2 7 12 15 12 8 5 7 5 10 9 4 2 12 4 11 14 6 11 8 3 11 9 4 3 4 5 7 9 3
25 34 89 85 86 88 84 80 74 64 66 66 22 15 23 40 7 4 3 3 8 12 11 11 9 6 2 8 5 5 8 12 10 7 7 9 2 6 14 11 9 4 7 5 8 6 9
32 30 31 47 101 98 96 97 90 83 79 67 21 6 11 26 8 13 11 8 9 11 11 10 9 9 7 5 6 9 4 8 9 3 7 8 5 12 11 10 8 6 6 10 11 6 5
51 38 36 28 64 113 103 107 100 97 90 81 29 18 25 11 13 16 16 17 14 13 7 15 1 10 13 7 5 7 8 5 5 7 5 7 5 4 10 9 6 11 12 13 16 11 12
62 55 59 47 27 33 88 111 112 108 103 97 29 16 21 15 33 25 18 16 22 12 18 11 9 20 14 13 13 16 12 10 10 9 8 4 4 4 10 4 2 10 16 18 8 7 21
52 60 59 68 50 47 39 114 113 118 119 57 62 34 24 20 13 23 17 17 24 32 19 11 28 13 12 11 18 20 14 20 20 15 13 10 8 5 10 5 6 11 14 23 9 11 13
53 52 54 61 68 58 59 37 134 116 128 99 88 63 28 7 11 15 25 22 22 32 21 16 37 14 22 37 36 27 28 26 22 9 9 10 6 5 8 9 6 11 10 13 13 12 32
52 53 50 53 65 69 72 53 35 129 116 129 83 84 41 7 32 11 29 18 43 31 11 16 17 21 53 27 8 9 9 11 9 7 7 3 7 3 3 4 14 4 8 13 13 13 29
55 55 56 52 45 54 68 65 50 102 119 129 112 101 76 26 26 40 25 42 13 9 7 6 27 61 31 8 6 10 10 9 3 10 11 4 7 7 6 4 9 8 7 13 8 9 14
35 49 56 61 55 48 52 59 69 31 129 132 98 101 68 30 23 66 21 38 30 20 9 17 26 23 12 4 5 7 8 7 9 17 11 3 3 10 6 6 18 11 18 20 9 10 11
28 31 47 48 51 53 51 59 73 69 48 128 80 88 72 38 35 72 64 45 39 37 14 34 17 7 3 6 7 8 6 14 6 10 14 16 16 8 6 2 16 27 17 15 5 6 9
23 22 42 48 50 58 61 47 66 68 51 74 70 81 91 36 20 72 66 69 78 85 66 66 17 30 33 7 6 6 4 3 8 7 7 8 13 12 19 14 5 60 17 33 9 6 8
Wind_Direction_850mb
206 202 198 194 189 171 165 117 87 61 35 38 39 32 34 32 33 41 45 50 56 27 42 56 48 64 62 61 38 31 29 32 27 40 52 73 60 61 77 70 50 66 49 42 19 21 53
211 207 206 206 199 191 187 184 92 92 49 23 29 28 33 34 34 37 49 51 39 35 33 96 53 54 73 70 36 26 34 39 45 49 56 66 55 54 65 49 63 23 12 49 19 15 65
215 216 211 211 207 199 201 246 267 71 55 28 16 23 29 33 35 46 50 32 43 33 37 73 59 65 58 57 36 24 31 48 44 51 67 67 62 63 39 51 58 336 346 213 7 356 28
220 216 213 218 214 212 201 232 274 21 3 2 4 8 27 21 28 27 29 24 82 60 71 70 70 67 74 39 30 33 38 34 42 66 70 66 52 63 33 19 353 338 36 55 329 11 330
224 223 218 219 220 215 211 217 254 264 319 320 345 4 18 20 15 15 67 55 87 98 76 85 66 84 58 21 32 36 33 29 49 59 50 54 54 59 19 26 25 17 349 341 161 22 11
230 229 223 222 220 220 215 216 231 248 274 301 322 3 16 8 12 13 22 139 61 109 128 73 81 73 37 11 26 22 44 41 30 39 54 51 59 64 23 39 74 316 345 333 10 335 18
239 236 225 220 220 222 213 214 223 234 254 272 291 334 18 4 15 22 53 131 125 71 68 64 55 76 34 38 37 18 73 55 22 34 61 41 58 30 333 16 331 293 23 348 319 321 20
241 235 229 225 217 220 214 216 216 227 228 259 272 300 4 12 15 29 34 132 112 131 90 63 65 65 44 35 28 29 46 75 46 35 16 39 53 314 309 31 358 35 45 341 310 336 339
242 237 231 224 223 219 218 213 214 218 223 238 253 284 347 23 34 50 77 115 122 121 77 44 40 43 37 45 40 9 26 51 45 43 45 93 272 314 352 35 25 66 73 315 279 317 291
237 239 230 229 221 222 219 214 211 216 219 236 238 222 327 162 161 90 94 131 146 149 80 330 354 17 27 53 36 18 24 58 37 70 69 73 353 354 45 65 23 84 8 324 316 14 320
237 236 231 228 223 223 219 216 214 212 220 221 228 199 258 95 167 99 125 142 152 140 42 327 336 6 42 78 349 17 29 52 72 21 82 276 360 0 18 336 340 254 320 279 284 323 16
236 230 229 226 224 224 220 216 217 214 216 222 228 193 220 235 173 117 121 136 135 45 258 341 328 346 103 41 49 10 29 48 75 54 36 105 58 59 272 287 255 307 309 222 323 70 36
229 232 228 225 226 223 220 218 219 214 215 222 221 221 195 222 208 155 130 121 34 124 350 250 322 352 74 28 48 38 70 16 58 57 358 347 360 324 347 333 2 9 37 353 8 15 229
229 228 227 224 225 228 219 219 214 214 214 215 220 215 207 206 192 170 138 59 91 212 215 234 130 354 97 336 66 16 83 42 36 64 79 107 344 5 347 66 223 336 64 132 189 322 289
226 225 226 222 223 224 218 217 214 215 211 212 217 216 207 202 200 181 136 71 211 194 168 150 62 79 310 149 110 87 73 151 105 111 134 93 299 311 53 330 40 319 40 279 97 52 14
223 222 222 221 222 222 224 219 217 213 210 210 213 215 220 199 194 177 86 224 195 212 144 148 152 150 196 189 123 121 206 158 134 79 168 222 19 283 312 341 342 85 242 28 360 40 335
227 221 220 221 218 221 226 221 222 214 208 207 202 206 207 189 177 189 169 210 198 188 166 150 177 147 200 186 153 135 116 351 150 173 102 127 106 291 10 312 180 28 1 358 127 130 152
233 227 226 221 217 222 223 221 217 211 204 204 189 185 188 173 146 355 162 182 150 174 177 147 127 174 166 178 147 127 137 179 164 167 195 187 145 224 225 260 17 98 227 137 128 278 234
223 221 225 227 221 219 221 220 213 210 208 192 191 158 182 177 149 245 296 139 168 152 194 170 161 172 148 170 106 131 134 118 179 185 188 180 323 11 347 352 357 211 197 154 114 83 220
249 252 254 245 226 222 221 222 213 213 204 199 191 132 155 201 193 154 149 206 185 188 175 170 131 126 104 53 24 155 191 135 204 172 160 141 113 169 197 211 135 188 248 196 136 130 221
260 253 262 267 212 230 223 224 218 211 205 193 213 216 170 175 230 192 180 153 146 174 191 175 75 199 161 126 35 194 145 94 159 211 191 144 200 172 257 256 265 224 192 206 187 197 175
249 255 254 248 252 239 229 224 224 216 204 193 191 183 172 176 176 157 167 212 165 167 151 217 211 189 179 158 187 188 159 136 197 181 193 189 264 89 293 336 290 263 235 208 228 256 273
254 252 244 254 252 254 258 223 232 222 204 194 203 191 181 165 165 176 192 181 188 143 202 203 185 133 176 182 131 102 127 128 165 157 189 174 136 84 274 310 325 321 222 187 192 217 160
246 248 247 243 246 248 255 239 217 227 214 202 202 197 181 190 184 191 170 167 165 183 148 165 169 130 147 139 115 101 82 77 98 53 166 157 124 112 257 350 6 241 146 181 193 223 216
238 250 250 246 242 241 250 251 235 221 230 213 201 196 197 163 188 168 168 139 130 129 94 143 151 157 152 138 83 60 352 14 356 9 347 132 137 64 124 220 294 273 201 162 177 278 209
237 239 241 237 230 236 237 246 248 211 226 220 207 203 203 166 212 180 158 167 150 129 78 115 139 150 163 127 116 159 203 201 268 345 328 78 72 118 69 145 225 243 176 174 161 305 210
201 238 241 238 239 234 237 235 241 248 219 216 210 203 197 197 188 182 179 177 165 139 111 142 148 171 179 143 130 169 210 167 176 166 184 133 63 161 178 243 282 230 159 144 83 236 184
211 231 228 238 243 241 233 233 240 248 225 207 212 208 202 201 190 193 192 169 158 160 146 152 110 195 154 150 154 191 174 211 136 164 174 178 153 181 102 123 277 160 126 175 212 179 196
264 238 243 242 245 236 225 232 230 240 237 221 215 219 212 208 201 202 202 206 204 196 176 166 175 155 170 143 194 110 161 120 162 219 151 226 187 179 189 211 244 185 206 217 210 232 242